�������l�o���
Date,Time,MP-1(��Sv/h),MP-2(��Sv/h),MP-3(��Sv/h),MP-4(��Sv/h),MP-5(��Sv/h),MP-6(��Sv/h),MP-7(��Sv/h),MP-8(��Sv/h),����,����(m/s),���J
2024/05/02,00:00,0.513,0.779,0.485,0.970,0.700,0.316,0.552,0.521,�k�k��,10.7,��
2024/05/02,00:10,0.512,0.780,0.487,0.972,0.698,0.315,0.554,0.519,�k�k��,10.7,��
2024/05/02,00:20,0.513,0.775,0.486,0.971,0.699,0.316,0.553,0.523,�k�k��,10.3,��
2024/05/02,00:30,0.512,0.778,0.487,0.972,0.699,0.315,0.553,0.519,�k�k��,10.5,��
2024/05/02,00:40,0.514,0.778,0.489,0.972,0.701,0.317,0.553,0.518,�k�k��,10.0,��
2024/05/02,00:50,0.513,0.778,0.488,0.971,0.699,0.316,0.553,0.521,�k�k��,10.2,��
2024/05/02,01:00,0.513,0.778,0.489,0.971,0.699,0.317,0.552,0.519,�k�k��,10.2,��
2024/05/02,01:10,0.514,0.779,0.487,0.969,0.699,0.315,0.552,0.520,�k�k��,9.9,��
2024/05/02,01:20,0.514,0.779,0.487,0.971,0.699,0.316,0.553,0.520,�k�k��,10.3,��
2024/05/02,01:30,0.514,0.781,0.486,0.974,0.699,0.316,0.551,0.520,�k�k��,10.3,��
2024/05/02,01:40,0.514,0.778,0.488,0.971,0.700,0.316,0.553,0.519,�k�k��,11.8,��
2024/05/02,01:50,0.513,0.778,0.487,0.973,0.699,0.316,0.551,0.519,�k�k��,11.0,��
2024/05/02,02:00,0.515,0.778,0.488,0.973,0.698,0.315,0.552,0.520,�k,11.0,��
2024/05/02,02:10,0.512,0.780,0.488,0.971,0.699,0.317,0.551,0.519,�k�k��,9.9,��
2024/05/02,02:20,0.514,0.780,0.486,0.973,0.701,0.318,0.552,0.520,�k�k��,9.7,��
2024/05/02,02:30,0.513,0.779,0.487,0.973,0.699,0.316,0.554,0.520,�k�k��,10.8,��
2024/05/02,02:40,0.514,0.778,0.487,0.970,0.700,0.316,0.552,0.519,�k,11.3,��
2024/05/02,02:50,0.513,0.779,0.487,0.972,0.699,0.318,0.552,0.520,�k,10.9,��
2024/05/02,03:00,0.514,0.779,0.486,0.973,0.699,0.316,0.552,0.519,�k�k��,9.6,��
2024/05/02,03:10,0.514,0.778,0.488,0.973,0.699,0.316,0.551,0.521,�k�k��,9.8,��
2024/05/02,03:20,0.514,0.779,0.487,0.970,0.699,0.316,0.553,0.520,�k,10.5,��
2024/05/02,03:30,0.513,0.779,0.488,0.973,0.700,0.317,0.553,0.520,�k�k��,10.5,��
2024/05/02,03:40,0.514,0.778,0.487,0.972,0.700,0.315,0.552,0.519,�k,10.0,��
2024/05/02,03:50,0.514,0.779,0.488,0.971,0.699,0.315,0.550,0.520,�k�k��,10.3,��
2024/05/02,04:00,0.514,0.779,0.487,0.974,0.701,0.315,0.551,0.521,�k�k��,9.7,��
2024/05/02,04:10,0.512,0.779,0.489,0.973,0.700,0.315,0.553,0.521,�k,8.8,��
2024/05/02,04:20,0.514,0.780,0.488,0.973,0.700,0.317,0.552,0.521,�k�k��,7.6,��
2024/05/02,04:30,0.512,0.779,0.487,0.972,0.700,0.316,0.551,0.520,�k,6.7,��
2024/05/02,04:40,0.514,0.781,0.488,0.970,0.701,0.317,0.552,0.521,�k�k��,8.0,��
2024/05/02,04:50,0.512,0.779,0.486,0.970,0.700,0.315,0.551,0.520,�k�k��,7.8,�L
2024/05/02,05:00,0.511,0.779,0.488,0.972,0.703,0.315,0.552,0.520,�k�k��,8.5,��
2024/05/02,05:10,0.512,0.780,0.488,0.973,0.702,0.316,0.551,0.520,�k�k��,8.2,�L
2024/05/02,05:20,0.512,0.779,0.487,0.970,0.702,0.316,0.551,0.520,�k�k��,7.8,�L
2024/05/02,05:30,0.515,0.780,0.487,0.971,0.699,0.316,0.553,0.522,�k�k��,8.1,��
2024/05/02,05:40,0.515,0.779,0.487,0.973,0.701,0.315,0.552,0.521,�k�k��,7.9,��
2024/05/02,05:50,0.513,0.780,0.488,0.972,0.704,0.316,0.551,0.520,�k�k��,7.7,��
2024/05/02,06:00,0.513,0.780,0.487,0.974,0.703,0.314,0.553,0.520,�k�k��,6.8,��
2024/05/02,06:10,0.513,0.780,0.486,0.973,0.700,0.316,0.552,0.521,�k�k��,7.8,��
2024/05/02,06:20,0.514,0.780,0.488,0.972,0.703,0.317,0.550,0.521,�k�k��,7.7,��
2024/05/02,06:30,0.513,0.781,0.489,0.971,0.704,0.315,0.553,0.519,�k�k��,6.7,��
2024/05/02,06:40,0.512,0.781,0.488,0.972,0.701,0.315,0.552,0.520,�k�k��,7.4,��
2024/05/02,06:50,0.514,0.780,0.487,0.973,0.702,0.315,0.552,0.519,�k�k��,6.9,��
2024/05/02,07:00,0.513,0.781,0.487,0.973,0.702,0.315,0.552,0.520,�k�k��,7.8,��
2024/05/02,07:10,0.513,0.778,0.488,0.974,0.700,0.316,0.553,0.521,�k�k��,9.1,��
2024/05/02,07:20,0.514,0.779,0.488,0.972,0.704,0.315,0.553,0.520,�k�k��,7.2,��
2024/05/02,07:30,0.514,0.780,0.488,0.973,0.701,0.315,0.551,0.520,�k�k��,7.2,��
2024/05/02,07:40,0.515,0.778,0.487,0.972,0.702,0.316,0.551,0.519,�k,6.7,��
2024/05/02,07:50,0.516,0.780,0.488,0.974,0.701,0.316,0.551,0.518,�k�k��,7.1,��
2024/05/02,08:00,0.514,0.779,0.487,0.973,0.701,0.314,0.551,0.520,�k�k��,6.7,��
2024/05/02,08:10,0.514,0.777,0.488,0.973,0.701,0.315,0.552,0.519,�k,8.7,��
2024/05/02,08:20,0.515,0.781,0.489,0.974,0.700,0.314,0.552,0.519,�k,6.3,��
2024/05/02,08:30,0.514,0.779,0.489,0.975,0.702,0.314,0.552,0.519,�k,9.3,��
2024/05/02,08:40,0.514,0.779,0.488,0.975,0.699,0.314,0.552,0.518,�k,8.8,��
2024/05/02,08:50,0.513,0.781,0.487,0.974,0.699,0.315,0.552,0.521,�k,9.6,��
2024/05/02,09:00,0.515,0.779,0.489,0.974,0.700,0.314,0.551,0.519,�k,9.2,��
2024/05/02,09:10,0.514,0.780,0.489,0.975,0.702,0.314,0.553,0.519,�k,9.3,��
2024/05/02,09:20,0.514,0.779,0.488,0.973,0.702,0.314,0.552,0.518,�k,10.5,��
2024/05/02,09:30,0.514,0.781,0.488,0.973,0.700,0.315,0.552,0.518,�k,9.6,��
2024/05/02,09:40,0.511,0.780,0.487,0.974,0.702,0.313,0.552,0.518,�k,9.8,��
2024/05/02,09:50,0.512,0.781,0.486,0.974,0.702,0.315,0.553,0.517,�k,10.7,��
2024/05/02,10:00,0.512,0.781,0.486,0.974,0.700,0.315,0.553,0.518,�k,9.2,��
2024/05/02,10:10,0.514,0.780,0.487,0.974,0.703,0.315,0.553,0.519,�k,8.3,��
2024/05/02,10:20,0.514,0.780,0.487,0.972,0.701,0.315,0.552,0.517,�k,9.1,��
2024/05/02,10:30,0.514,0.780,0.487,0.974,0.701,0.314,0.553,0.519,�k,7.9,��
2024/05/02,10:40,0.513,0.781,0.487,0.975,0.702,0.314,0.551,0.518,�k,9.3,��
2024/05/02,10:50,0.513,0.783,0.486,0.975,0.702,0.314,0.554,0.518,�k�k��,7.2,��
2024/05/02,11:00,0.515,0.781,0.487,0.974,0.701,0.315,0.553,0.519,�k�k��,8.0,��
2024/05/02,11:10,0.514,0.783,0.487,0.974,0.703,0.315,0.554,0.518,�k�k��,7.7,��
2024/05/02,11:20,0.513,0.781,0.488,0.976,0.705,0.315,0.553,0.518,�k,7.8,��
2024/05/02,11:30,0.514,0.781,0.488,0.975,0.703,0.314,0.553,0.519,�k,7.6,��
2024/05/02,11:40,0.514,0.782,0.488,0.973,0.703,0.315,0.553,0.520,�k�k��,7.6,��
2024/05/02,11:50,0.516,0.782,0.488,0.973,0.705,0.315,0.554,0.518,�k�k��,8.8,��
2024/05/02,12:00,0.515,0.780,0.488,0.971,0.704,0.315,0.553,0.518,�k�k��,7.6,��
2024/05/02,12:10,0.515,0.782,0.487,0.972,0.703,0.315,0.552,0.520,�k,9.1,��
2024/05/02,12:20,0.513,0.782,0.487,0.972,0.702,0.315,0.554,0.518,�k�k��,9.3,��
2024/05/02,12:30,0.515,0.781,0.489,0.973,0.703,0.314,0.553,0.519,�k�k��,7.5,��
2024/05/02,12:40,0.513,0.783,0.487,0.972,0.705,0.315,0.553,0.519,�k�k��,8.0,��
2024/05/02,12:50,0.514,0.784,0.488,0.975,0.703,0.315,0.553,0.518,�k�k��,8.1,��
2024/05/02,13:00,0.515,0.783,0.489,0.975,0.704,0.314,0.552,0.519,�k�k��,7.8,��
2024/05/02,13:10,0.514,0.783,0.487,0.976,0.704,0.315,0.554,0.519,�k�k��,7.6,��
2024/05/02,13:20,0.517,0.784,0.489,0.978,0.705,0.315,0.556,0.519,�k�k��,7.5,��
2024/05/02,13:30,0.515,0.783,0.489,0.977,0.705,0.315,0.553,0.520,�k,8.9,��
2024/05/02,13:40,0.513,0.783,0.488,0.978,0.705,0.315,0.554,0.518,�k�k��,8.3,��
2024/05/02,13:50,0.515,0.784,0.488,0.975,0.706,0.315,0.554,0.519,�k�k��,7.7,��
2024/05/02,14:00,0.515,0.784,0.489,0.975,0.705,0.315,0.555,0.519,�k�k��,8.2,��
2024/05/02,14:10,0.515,0.782,0.489,0.977,0.706,0.315,0.555,0.520,�k�k��,7.3,��
2024/05/02,14:20,0.515,0.784,0.488,0.981,0.706,0.313,0.553,0.518,�k�k��,6.7,��
2024/05/02,14:30,0.515,0.785,0.488,0.976,0.705,0.315,0.554,0.519,�k�k��,7.4,��
2024/05/02,14:40,0.514,0.784,0.489,0.974,0.707,0.315,0.553,0.520,�k�k��,6.7,��
2024/05/02,14:50,0.515,0.785,0.489,0.975,0.708,0.314,0.554,0.518,�k�k��,6.0,��
2024/05/02,15:00,0.515,0.786,0.488,0.973,0.706,0.315,0.554,0.518,�k�k��,5.7,��
2024/05/02,15:10,0.515,0.782,0.490,0.972,0.706,0.315,0.554,0.517,�k�k��,6.0,��
2024/05/02,15:20,0.515,0.783,0.490,0.973,0.708,0.315,0.553,0.518,�k�k��,5.6,��
2024/05/02,15:30,0.515,0.783,0.491,0.974,0.706,0.315,0.553,0.519,�k�k��,5.2,��
2024/05/02,15:40,0.512,0.783,0.490,0.974,0.704,0.315,0.553,0.519,�k��,4.8,��
2024/05/02,15:50,0.514,0.784,0.488,0.973,0.707,0.314,0.554,0.518,�k�k��,5.4,��
2024/05/02,16:00,0.514,0.783,0.490,0.975,0.705,0.315,0.554,0.519,�k��,5.2,��
2024/05/02,16:10,0.514,0.781,0.490,0.974,0.705,0.314,0.554,0.519,�k�k��,4.7,��
2024/05/02,16:20,0.514,0.784,0.488,0.975,0.707,0.314,0.554,0.518,�k��,4.2,��
2024/05/02,16:30,0.515,0.785,0.489,0.973,0.705,0.314,0.554,0.518,�k��,4.0,��
2024/05/02,16:40,0.515,0.785,0.490,0.977,0.706,0.316,0.554,0.518,�k��,4.0,��
2024/05/02,16:50,0.515,0.782,0.488,0.975,0.707,0.316,0.553,0.518,�k�k��,3.8,��
2024/05/02,17:00,0.513,0.784,0.489,0.975,0.709,0.315,0.554,0.518,�k��,3.2,��
2024/05/02,17:10,0.515,0.784,0.489,0.974,0.704,0.315,0.554,0.519,�k��,2.5,��
2024/05/02,17:20,0.515,0.785,0.489,0.975,0.706,0.317,0.554,0.520,���k��,2.3,��
2024/05/02,17:30,0.514,0.786,0.488,0.977,0.704,0.318,0.552,0.519,���k��,2.3,��
2024/05/02,17:40,0.512,0.786,0.488,0.978,0.706,0.317,0.555,0.520,���k��,1.1,��
2024/05/02,17:50,0.514,0.788,0.487,0.975,0.705,0.318,0.554,0.521,���k��,1.7,��
2024/05/02,18:00,0.515,0.784,0.487,0.974,0.706,0.317,0.554,0.521,�k��,1.2,��
2024/05/02,18:10,0.514,0.786,0.488,0.977,0.707,0.316,0.553,0.520,���k��,0.8,��
2024/05/02,18:20,0.516,0.787,0.489,0.977,0.707,0.317,0.554,0.521,���쓌,1.5,��
2024/05/02,18:30,0.515,0.785,0.488,0.979,0.709,0.318,0.555,0.521,���쓌,1.4,��
2024/05/02,18:40,0.517,0.785,0.489,0.976,0.708,0.317,0.555,0.521,��,1.1,��
2024/05/02,18:50,0.517,0.786,0.491,0.976,0.709,0.318,0.554,0.522,�쓌,1.7,��
2024/05/02,19:00,0.517,0.786,0.490,0.977,0.707,0.315,0.555,0.519,�쓌,1.5,��
2024/05/02,19:10,0.516,0.786,0.490,0.978,0.707,0.317,0.558,0.521,�쓌,1.7,��
2024/05/02,19:20,0.516,0.786,0.490,0.978,0.709,0.316,0.555,0.521,�쓌,1.7,��
2024/05/02,19:30,0.517,0.786,0.489,0.976,0.707,0.317,0.557,0.519,��,1.7,��
2024/05/02,19:40,0.517,0.785,0.490,0.979,0.707,0.317,0.556,0.521,��,1.9,��
2024/05/02,19:50,0.516,0.784,0.491,0.978,0.708,0.316,0.557,0.521,��,2.0,��
2024/05/02,20:00,0.517,0.785,0.490,0.977,0.708,0.315,0.556,0.519,��쐼,2.3,��
2024/05/02,20:10,0.516,0.785,0.491,0.979,0.708,0.318,0.558,0.519,��쐼,2.6,��
2024/05/02,20:20,0.516,0.785,0.490,0.978,0.707,0.314,0.556,0.519,��쐼,2.6,��
2024/05/02,20:30,0.515,0.785,0.490,0.978,0.707,0.316,0.557,0.520,��쐼,2.6,��
2024/05/02,20:40,0.516,0.783,0.489,0.979,0.709,0.316,0.557,0.520,��쐼,2.5,��
2024/05/02,20:50,0.515,0.786,0.490,0.978,0.707,0.316,0.557,0.519,��쐼,3.0,��
2024/05/02,21:00,0.516,0.785,0.488,0.978,0.709,0.316,0.557,0.519,�쐼,3.1,��
2024/05/02,21:10,0.516,0.786,0.490,0.977,0.705,0.317,0.557,0.520,��쐼,3.2,��
2024/05/02,21:20,0.517,0.787,0.488,0.976,0.709,0.316,0.558,0.519,��쐼,2.8,��
2024/05/02,21:30,0.516,0.785,0.487,0.977,0.706,0.315,0.557,0.522,��쐼,2.8,��
2024/05/02,21:40,0.515,0.784,0.489,0.979,0.708,0.316,0.557,0.519,��쐼,2.0,��
2024/05/02,21:50,0.515,0.784,0.489,0.976,0.707,0.315,0.558,0.519,��,2.0,��
2024/05/02,22:00,0.515,0.785,0.489,0.977,0.707,0.316,0.558,0.519,��,4.5,��
2024/05/02,22:10,0.518,0.785,0.488,0.977,0.707,0.317,0.559,0.518,��,4.9,��
2024/05/02,22:20,0.515,0.786,0.489,0.977,0.706,0.316,0.557,0.520,��,4.0,��
2024/05/02,22:30,0.515,0.785,0.489,0.977,0.707,0.316,0.557,0.520,��,4.2,��
2024/05/02,22:40,0.515,0.786,0.490,0.978,0.708,0.315,0.557,0.520,��,5.0,��
2024/05/02,22:50,0.516,0.785,0.489,0.976,0.707,0.315,0.559,0.520,��,5.4,��
2024/05/02,23:00,0.515,0.785,0.489,0.975,0.706,0.315,0.558,0.519,��,5.6,��
2024/05/02,23:10,0.516,0.785,0.488,0.976,0.706,0.315,0.557,0.521,��,5.9,��
2024/05/02,23:20,0.516,0.786,0.489,0.977,0.708,0.315,0.558,0.519,��,6.4,��
2024/05/02,23:30,0.517,0.786,0.490,0.975,0.706,0.317,0.557,0.519,��,6.6,��
2024/05/02,23:40,0.515,0.784,0.489,0.975,0.707,0.316,0.557,0.520,��,6.8,��
2024/05/02,23:50,0.515,0.785,0.489,0.976,0.707,0.316,0.560,0.519,��,6.3,��
